Flag for Germany Weather past 2 weeks in Wuppertal, North Rhine-Westphalia, Germany

37 °F

Rain. Partly cloudy.

Feels Like: 31 °F
Forecast: 31 / 41 °F
Wind: 9 mph from Southeast

Location: Duesseldorf

Current Time: Nov 25, 2015 at 3:57:26 AM

Latest Report: Nov 25, 2015 at 3:20 AM

Visibility: 4 mi

Pressure: 29.71 "Hg

Humidity: 93%

Dew point: 36 °F

Location of WuppertalLocation

Historic Weather in Wuppertal — Graph


Wuppertal temperature yesterday

Maximum temperature yesterday: 41 °F (at 1:20 PM)
Minimum temperature yesterday: 34 °F (at 6:20 PM)
Average temperature yesterday: 37 °F

Past Weeks' High & Low Weather Summary

High61 °F (Nov 15, 11:50 AM)100% (Nov 14, 10:50 PM)30.30 "Hg (Nov 14, 10:50 PM)
Low32 °F (Nov 22, 7:20 AM)59% (Nov 18, 3:20 AM)29.39 "Hg (Nov 21, 7:20 AM)
Average50 °F81%29.96 "Hg
* Reported Nov 10 2:20 AM — Nov 25 2:50 AM, Wuppertal, Weather by CustomWeather, © 2015

Note: Actual official high and low records may vary slightly from our data, if they occured in-between our weather recording intervals... More about our weather records


Wuppertal weather history for previous 24 hours

Time TempWeatherWind HumidityBarometerVisibility
2:50 AM
Wed, Nov 25
37 °FRain. Partly cloudy.12 mph93%29.71 "Hg4 mi
2:20 AM36 °FDrizzle. Mostly cloudy.12 mph100%29.71 "Hg3 mi
1:20 AM36 °FRain. Mostly cloudy.12 mph100%29.74 "Hg5 mi
12:50 AM36 °FLight rain. Mostly cloudy.13 mph100%29.74 "HgN/A
12:20 AM36 °FLight rain. Low clouds.12 mph100%29.74 "HgN/A
11:50 PM
Tue, Nov 24
36 °FLight rain. Low clouds.12 mph100%29.77 "HgN/A
11:20 PM36 °FLight rain. Partly cloudy.12 mph93%29.77 "Hg6 mi
10:50 PM36 °FLight rain. Partly cloudy.12 mph93%29.77 "Hg6 mi
10:20 PM36 °FLight rain. Passing clouds.10 mph93%29.80 "Hg5 mi
9:50 PM36 °FRain. Passing clouds.12 mph93%29.80 "Hg5 mi
9:20 PM36 °FLight rain. Passing clouds.13 mph93%29.80 "Hg4 mi
8:50 PM36 °FLight rain. Passing clouds.14 mph93%29.80 "Hg4 mi
8:20 PM34 °FRain. Passing clouds.14 mph100%29.83 "Hg3 mi
7:50 PM34 °FLight rain. Partly cloudy.14 mph100%29.83 "Hg4 mi
7:20 PM34 °FRain. Fog.15 mph100%29.83 "Hg3 mi
6:50 PM34 °FLight rain. Passing clouds.16 mph100%29.86 "Hg4 mi
6:20 PM34 °FLight rain. Fog.15 mph100%29.86 "Hg3 mi
5:50 PM36 °FLight rain. Fog.16 mph93%29.86 "Hg3 mi
5:20 PM36 °FLight rain. Partly cloudy.17 mph93%29.86 "Hg4 mi
4:50 PM36 °FLight rain. Passing clouds.20 mph93%29.89 "Hg4 mi
4:20 PM36 °FLight rain. Partly sunny.21 mph93%29.89 "Hg4 mi
3:50 PM36 °FLight rain. Mostly cloudy.23 mph93%29.92 "Hg4 mi
3:20 PM36 °FLight rain. Broken clouds.22 mph87%29.92 "Hg4 mi
2:50 PM37 °FLight rain. Partly sunny.22 mph81%29.95 "Hg6 mi
2:20 PM39 °FLight rain. Broken clouds.21 mph70%29.98 "HgN/A
1:50 PM39 °FLight rain. Partly sunny.21 mph70%29.98 "HgN/A
1:20 PM41 °FPartly sunny.17 mph61%29.98 "HgN/A
12:50 PM39 °FPartly sunny.14 mph70%30.01 "HgN/A
12:20 PM39 °FLight rain. Cloudy.15 mph70%30.04 "HgN/A
11:50 AM39 °FMore clouds than sun.16 mph65%30.07 "HgN/A
11:20 AM39 °FMore clouds than sun.15 mph65%30.07 "HgN/A
10:50 AM39 °FMore clouds than sun.20 mph65%30.07 "HgN/A
10:20 AM39 °FMore clouds than sun.17 mph65%30.07 "HgN/A
9:50 AM39 °FSunny.16 mph65%30.09 "Hg10 mi
9:20 AM37 °FSunny.16 mph70%30.09 "Hg10 mi
8:50 AM37 °FSunny.16 mph70%30.12 "Hg10 mi
8:20 AM37 °FSunny.16 mph70%30.12 "Hg10 mi
7:50 AM37 °FClear.16 mph70%30.12 "Hg10 mi
7:20 AM37 °FClear.15 mph70%30.12 "Hg10 mi
6:50 AM37 °FClear.14 mph70%30.12 "Hg10 mi
6:20 AM37 °FClear.14 mph70%30.15 "Hg10 mi
5:50 AM37 °FClear.12 mph75%30.15 "Hg10 mi
5:20 AM36 °FClear.9 mph75%30.15 "Hg10 mi
4:50 AM36 °FClear.12 mph75%30.15 "Hg10 mi
3:50 AM36 °FClear.12 mph81%30.18 "Hg10 mi
3:20 AM36 °FClear.12 mph81%30.18 "Hg10 mi
Weather by CustomWeather, © 2015

See weather overviewHow to use our weather pages